User: anonymous
Location: Caltech
(34.1382°N, 118.1253°W)
Time: 11:16:15
(UTC-07:00)
Language:

OAO 2 Rocket - Orbit

View from above orbital plane
View from above orbital plane
View from above satellite
View from above satellite

Ground track
Ground track

The orbit data is extracted from the following two-line orbital elements,

1 03598U 68110B   14265.32248264  .00000526  00000-0  12690-3 0  7172
2 03598 034.9931 215.9815 0049097 047.9400 088.8672 14.53697512421009
Epoch (UTC): 22 September 2014 07:44:22
Eccentricity: 0.0049097
inclination: 34.9931°
perigee height: 679 km
apogee height: 748 km
right ascension of ascending node: 215.9815°
argument of perigee: 47.9400°
revolutions per day: 14.53697512
mean anomaly at epoch: 88.8672°
orbit number at epoch: 42100

The dashed part of the orbit path shows where the satellite is in the earth's shadow,  

DLR